This demonstration page uses our WeatherBlox Daily Observations layout. Learn more.

38.89511, -77.03637

Hourly Observations for February 26, 2020

Temp ( °F °C ) Dew Point ( °F °C ) Humidity (%) Winds ( mph kmh ) Pressure ( in mb ) Visibility ( mi km ) Precip ( " mm )
12:18 am 00:18 Cloudy with Mist and Fog 50 10 49 9.4 96 96 NE 5 7 29.87 1012 1.5 2.41401 0 0
12:25 am 00:25 Cloudy with Mist and Fog 50 10 49 9.4 96 96 ENE 6 9 29.87 1012 1.75 2.816345 0 0
12:33 am 00:33 Cloudy with Mist and Fog 50 10 49 9.4 96 96 NE 6 9 29.87 1012 2 3.21868 0 0
12:52 am 00:52 Cloudy with Light Drizzle 50 10 49 9.4 96 96 NE 7 11 29.86 1011 2.5 4.02335 0.001 0.001
12:59 am 00:59 Cloudy with Mist and Fog 50 10 49 9.4 96 96 NE 6 9 29.87 1012 3 4.82802 0.001 0.001
1:06 am 01:06 Cloudy with Mist and Fog 50 10 49 9.4 96 96 NNE 5 7 29.86 1011 4 6.43736 0.001 0.001
1:34 am 01:34 Cloudy with Mist and Fog 50 10 50 10 100 100 Calm 29.87 1012 5 8.0467 0.001 0.001
1:52 am 01:52 Cloudy with Mist and Fog 51 10.6 49 9.4 92 92 NE 6 9 29.87 1012 5 8.0467 0.001 0.001
2:52 am 02:52 Cloudy with Mist and Fog 50 10 49 9.4 96 96 NNE 7 11 29.86 1011 5 8.0467 0 0
3:52 am 03:52 Cloudy 50 10 49 9.4 96 96 NNE 6 9 29.87 1012 7 11.26538 0 0
4:30 am 04:30 Cloudy with Mist and Fog 50 10 49 9.4 96 96 NE 5 7 29.86 1011 6 9.65604 0 0
4:52 am 04:52 Cloudy 50 10 49 9.4 96 96 NNE 5 7 29.86 1011 7 11.26538 0 0
5:36 am 05:36 Cloudy with Mist and Fog 50 10 49 9.4 96 96 NE 5 7 29.88 1012 6 9.65604 0 0
5:52 am 05:52 Cloudy with Mist and Fog 50 10 49 9.4 96 96 NE 5 7 29.88 1012 6 9.65604 0 0
6:12 am 06:12 Cloudy with Mist and Fog 50 10 49 9.4 96 96 NNE 5 7 29.9 1013 6 9.65604 0 0
6:24 am 06:24 Cloudy 51 10.6 49 9.4 92 92 NNE 5 7 29.9 1013 7 11.26538 0 0
6:52 am 06:52 Cloudy with Mist and Fog 49 9.4 48 8.9 97 97 ENE 3 6 29.89 1012 5 8.0467 0 0
7:00 am 07:00 Cloudy with Mist and Fog 50 10 48 8.9 93 93 ENE 3 6 29.9 1013 4 6.43736 0 0
7:18 am 07:18 Cloudy with Mist and Fog 50 10 49 9.4 96 96 NNE 5 7 29.9 1013 3 4.82802 0 0
7:32 am 07:32 Cloudy with Mist and Fog 50 10 49 9.4 96 96 NE 6 9 29.9 1013 2.5 4.02335 0 0
7:44 am 07:44 Cloudy with Mist and Fog 50 10 49 9.4 96 96 NE 3 6 29.91 1013 2.5 4.02335 0 0
7:52 am 07:52 Cloudy with Mist and Fog 50 10 48 8.9 93 93 Calm 29.91 1013 2.5 4.02335 0 0
8:05 am 08:05 Cloudy with Mist and Fog 50 10 49 9.4 96 96 Calm 29.92 1013 3 4.82802 0 0
8:52 am 08:52 Cloudy with Mist and Fog 51 10.6 49 9.4 92 92 Calm 29.94 1014 4 6.43736 0 0
9:12 am 09:12 Cloudy with Mist and Fog 51 10.6 49 9.4 92 92 Calm 29.94 1014 2 3.21868 0 0
9:52 am 09:52 Cloudy with Light Drizzle 51 10.6 50 10 96 96 NE 5 7 29.94 1014 2 3.21868 0.001 0.001
10:52 am 10:52 Cloudy with Mist and Fog 51 10.6 50 10 96 96 SE 5 7 29.91 1013 3 4.82802 0.001 0.001
11:23 am 11:23 Cloudy with Mist and Fog 52 11.1 49 9.4 89 89 ESE 9 15 29.89 1012 5 8.0467 0 0
11:52 am 11:52 Cloudy 53 11.7 50 10 89 89 ESE 8 13 29.89 1012 7 11.26538 0 0
12:15 pm 12:15 Cloudy 53 11.7 49 9.4 86 86 E 5 7 29.88 1012 7 11.26538 0 0
12:52 pm 12:52 Cloudy 52 11.1 48 8.9 86 86 E 8 13 29.86 1011 10 16.0934 0 0
1:52 pm 13:52 Cloudy 52 11.1 48 8.9 86 86 ESE 8 13 29.83 1010 9 14.48406 0 0
2:52 pm 14:52 Cloudy 52 11.1 48 8.9 86 86 E 9 15 29.81 1009 10 16.0934 0 0
3:44 pm 15:44 Cloudy 51 10.6 48 8.9 89 89 ESE 10 17 29.78 1008 10 16.0934 0 0
3:52 pm 15:52 Cloudy 51 10.6 48 8.9 89 89 ESE 8 13 29.78 1008 10 16.0934 0 0
4:52 pm 16:52 Cloudy 51 10.6 48 8.9 89 89 ESE 12 19 29.76 1008 8 12.87472 0 0
5:06 pm 17:06 Cloudy with Mist and Fog 50 10 49 9.4 96 96 ESE 10 17 29.76 1008 6 9.65604 0 0
5:40 pm 17:40 Cloudy with Mist and Fog 50 10 49 9.4 96 96 E 8 13 29.74 1007 1.75 2.816345 0 0
5:47 pm 17:47 Cloudy with Light Rain 50 10 48 9 94 94 SSE 5 7 29.72 1006 2.5 4.02335 0 0
5:52 pm 17:52 Cloudy with Mist and Fog 50 10 49 9.4 96 96 ESE 7 11 29.74 1007 2 3.21868 0 0
6:02 pm 18:02 Cloudy with Mist and Fog 50 10 49 9.4 96 96 ESE 8 13 29.74 1007 3 4.82802 0 0
6:04 pm 18:04 Cloudy with Light Drizzle 50 10 49 9.4 96 96 ESE 8 13 29.74 1007 3 4.82802 0.001 0.001
6:09 pm 18:09 Cloudy with Light Drizzle 50 10 49 9.4 96 96 SE 6 9 29.73 1007 2.5 4.02335 0.001 0.001
6:41 pm 18:41 Cloudy with Light Drizzle 50 10 49 9.4 96 96 ESE 5 7 29.7 1006 2.5 4.02335 0.001 0.001
6:52 pm 18:52 Cloudy with Light Drizzle 50 10 49 9.4 96 96 ESE 6 9 29.69 1006 2.5 4.02335 0.001 0.001
7:20 pm 19:20 Cloudy with Light Drizzle 50 10 49 9.4 96 96 SE 5 7 29.68 1005 3 4.82802 0.001 0.001
7:52 pm 19:52 Cloudy with Light Drizzle 50 10 49 9.4 96 96 ESE 5 7 29.65 1004 2.5 4.02335 0.001 0.001
7:55 pm 19:55 Cloudy with Light Drizzle 50 10 49 9.4 96 96 ESE 8 13 29.65 1004 3 4.82802 0.001 0.001
8:23 pm 20:23 Cloudy 50 10 48 8.9 93 93 E 7 11 29.64 1004 7 11.26538 0.001 0.001
8:52 pm 20:52 Cloudy with Light Drizzle 49 9.4 48 8.9 97 97 E 7 11 29.62 1003 6 9.65604 0.001 0.001
9:20 pm 21:20 Cloudy with Light Drizzle 48 8.9 47 8.3 96 96 E 10 17 29.6 1002 4 6.43736 0.001 0.001
9:52 pm 21:52 Cloudy with Light Drizzle 47 8.3 46 7.8 97 97 ESE 6 9 29.57 1002 3 4.82802 0.001 0.001
10:31 pm 22:31 Cloudy 47 8.3 46 7.8 97 97 ESE 10 17 29.54 1000 7 11.26538 0.001 0.001
10:44 pm 22:44 Cloudy 47 8.3 46 7.8 97 97 E 5 7 29.53 1000 10 16.0934 0.001 0.001
10:52 pm 22:52 Cloudy 47 8.3 46 7.8 97 97 SSE 3 6 29.53 1000 10 16.0934 0.001 0.001
11:27 pm 23:27 Cloudy with Heavy Rain 48 8.9 46 7.8 93 93 WNW 23 37 29.58 1002 2.5 4.02335 0.001 0.001
11:32 pm 23:32 Cloudy with Heavy Rain 47 8.3 44 6.7 90 90 NW 29 46 29.59 1002 1.75 2.816345 0.05 1.27
11:38 pm 23:38 Cloudy with Heavy Rain 44 6.7 41 5 89 89 NW 21 33 29.61 1003 5 8.0467 0.12 3.048
11:44 pm 23:44 Cloudy with Rain 45 7.2 41 5 86 86 NW 22 35 29.59 1002 7 11.26538 0.14 3.556
11:52 pm 23:52 Cloudy with Light Rain 45 7.2 41 5 86 86 NW 22 35 29.59 1002 7 11.26538 0.16 4.064

Powered by AerisWeather